This is the latest recevied weather packets stored in our database for station/object 4S6DRJ-13. If no packets are shown the sender has not sent any weather packets the latest 10 day(s).
| Time | Temp. | Humidity | Pressure | Rain* | Wind** | Luminosity | Snow |
|---|---|---|---|---|---|---|---|
| 1787672728 | 27.78° C | 83% | 1011.6 hPa | 0 mm | 0.45 m/s, 125° | 0 W/m² | - |
| 1787672667 | 27.78° C | 83% | 1011.7 hPa | 0 mm | 0.89 m/s, 194° | 0 W/m² | - |
| 1787672606 | 27.78° C | 83% | 1011.5 hPa | 0 mm | 1.34 m/s, 222° | 0 W/m² | - |
| 1787672545 | 27.78° C | 83% | 1011.6 hPa | 0 mm | 0.45 m/s, 302° | 0 W/m² | - |
| 1787672483 | 27.78° C | 83% | 1011.8 hPa | 0 mm | 0.45 m/s, 293° | 0 W/m² | - |
| 1787672423 | 27.78° C | 83% | 1011.5 hPa | 0 mm | 0.45 m/s, 296° | 0 W/m² | - |
| 1787672361 | 27.78° C | 82% | 1011.6 hPa | 0 mm | 0.89 m/s, 183° | 0 W/m² | - |
| 1787672300 | 27.78° C | 82% | 1011.7 hPa | 0 mm | 1.34 m/s, 222° | 0 W/m² | - |
| 1787672241 | 27.78° C | 82% | 1011.6 hPa | 0 mm | 0.89 m/s, 351° | 0 W/m² | - |
| 1787672179 | 27.78° C | 82% | 1011.5 hPa | 0 mm | 0.89 m/s, 198° | 0 W/m² | - |
| 1787672117 | 27.78° C | 82% | 1011.5 hPa | 0 mm | 0.89 m/s, 232° | 0 W/m² | - |
| 1787672057 | 27.78° C | 82% | 1011.4 hPa | 0 mm | 1.79 m/s, 131° | 0 W/m² | - |
| 1787671995 | 27.78° C | 82% | 1011.6 hPa | 0 mm | 1.34 m/s, 253° | 0 W/m² | - |
| 1787671934 | 27.78° C | 82% | 1011.4 hPa | 0 mm | 0.89 m/s, 208° | 0 W/m² | - |
| 1787671873 | 27.78° C | 82% | 1011.4 hPa | 0 mm | 0.89 m/s, 218° | 0 W/m² | - |
| 1787671812 | 27.78° C | 82% | 1011.5 hPa | 0 mm | 0.89 m/s, 231° | 0 W/m² | - |
| 1787671750 | 27.78° C | 82% | 1011.5 hPa | 0 mm | 0.89 m/s, 214° | 0 W/m² | - |
| 1787671690 | 27.78° C | 82% | 1011.3 hPa | 0 mm | 1.79 m/s, 235° | 0 W/m² | - |
| 1787671629 | 27.78° C | 82% | 1011.3 hPa | 0 mm | 1.34 m/s, 225° | 0 W/m² | - |
| 1787671568 | 27.78° C | 82% | 1011.3 hPa | 0 mm | 0.45 m/s, 200° | 0 W/m² | - |
| 1787671507 | 27.78° C | 82% | 1011.3 hPa | 0 mm | 1.79 m/s, 240° | 0 W/m² | - |
| 1787671446 | 27.78° C | 82% | 1011.2 hPa | 0 mm | 1.34 m/s, 192° | 0 W/m² | - |
| 1787671385 | 27.78° C | 82% | 1011.2 hPa | 0 mm | 0.89 m/s, 227° | 0 W/m² | - |
| 1787671324 | 27.78° C | 82% | 1011.3 hPa | 0 mm | 0.89 m/s, 229° | 0 W/m² | - |
| 1787671263 | 27.78° C | 82% | 1011.1 hPa | 0 mm | 0.45 m/s, 323° | 0 W/m² | - |
* Rain latest hour (hover to see other rain measurements)
** Current wind speed in m/s (hover to see current wind gust speed)